This demonstration page uses our WeatherBlox Daily Observations layout. Learn more.

39.01783, -85.05884

Hourly Observations for June 9, 2019

Temp ( °F °C ) Dew Point ( °F °C ) Humidity (%) Winds ( mph kmh ) Pressure ( in mb ) Visibility ( mi km ) Precip ( " mm )
12:52 am 00:52 Cloudy with Light Rain 68 20 64 17.8 87 87 E 13 20 29.88 1012 9 14.484096 0.01 0.254
1:52 am 01:52 Cloudy with Light Rain 68 20 64 17.8 87 87 E 12 19 29.88 1012 10 16.09344 0.01 0.254
2:52 am 02:52 Cloudy with Rain 68 20 64 17.8 87 87 E 14 22 29.85 1011 4 6.437376 0.01 0.254
3:52 am 03:52 Cloudy 67 19.4 64 17.8 91 91 E 10 17 29.85 1011 10 16.09344 0.02 0.508
4:52 am 04:52 Cloudy 67 19.4 64 17.8 91 91 E 12 19 29.85 1011 10 16.09344 0.001 0.001
5:52 am 05:52 Cloudy 68 20 64 17.8 87 87 E 12 19 29.85 1011 10 16.09344 0 0
6:52 am 06:52 Cloudy 68 20 64 17.8 87 87 E 13 20 29.88 1012 10 16.09344 0 0
7:52 am 07:52 Cloudy 69 20.6 64 17.8 84 84 ESE 8 13 29.91 1013 10 16.09344 0 0
8:39 am 08:39 Cloudy 69 20.6 64 17.8 84 84 ESE 13 20 29.91 1013 10 16.09344 0 0
8:52 am 08:52 Cloudy 69 20.6 64 17.8 84 84 ESE 13 20 29.91 1013 10 16.09344 0 0
9:52 am 09:52 Cloudy 70 21.1 65 18.3 84 84 ESE 15 24 29.91 1013 10 16.09344 0 0
10:52 am 10:52 Cloudy 72 22.2 65 18.3 79 79 ESE 17 28 29.91 1013 10 16.09344 0 0
11:52 am 11:52 Cloudy 72 22.2 66 18.9 82 82 SE 15 24 29.91 1013 10 16.09344 0 0
12:52 pm 12:52 Cloudy 74 23.3 66 18.9 76 76 ESE 10 17 29.91 1013 10 16.09344 0 0
1:52 pm 13:52 Cloudy 75 23.9 67 19.4 76 76 ESE 9 15 29.91 1013 10 16.09344 0 0
2:28 pm 14:28 Cloudy 76 24.4 68 20 77 77 SE 10 17 29.91 1013 10 16.09344 0 0
2:52 pm 14:52 Cloudy 76 24.4 68 20 77 77 SE 9 15 29.88 1012 10 16.09344 0 0
3:52 pm 15:52 Cloudy 79 26.1 68 20 69 69 ESE 12 19 29.88 1012 10 16.09344 0 0
4:52 pm 16:52 Cloudy with Light Rain 78 25.6 68 20 71 71 E 10 17 29.88 1012 10 16.09344 0.001 0.001
5:52 pm 17:52 Mostly Cloudy 78 25.6 70 21.1 76 76 E 12 19 29.88 1012 10 16.09344 0.16 4.064
6:52 pm 18:52 Mostly Cloudy 76 24.4 69 20.6 79 79 ESE 9 15 29.88 1012 10 16.09344 0 0
7:52 pm 19:52 Mostly Cloudy 76 24.4 68 20 77 77 E 9 15 29.88 1012 10 16.09344 0 0
8:52 pm 20:52 Cloudy 75 23.9 68 20 79 79 E 7 11 29.88 1012 10 16.09344 0 0
9:52 pm 21:52 Cloudy with Light Rain 74 23.3 69 20.6 85 85 VRB 6 9 29.88 1012 9 14.484096 0.01 0.254
10:52 pm 22:52 Cloudy with Light Rain 73 22.8 69 20.6 87 87 ESE 3 6 29.88 1012 8 12.874752 0.15 3.81
11:52 pm 23:52 Cloudy with Rain 73 22.8 70 21.1 90 90 SE 3 6 29.88 1012 7 11.265408 0.03 0.762

Powered by AerisWeather